Content
SEND FEEDBACK

Daily
Averages
Monthly
Summary
Sweden

SATER, SWEDEN


Home > Europe > Sweden
Elevation: 499 feet     Latitude: 60 24N     Longitude: 015 31E

WEATHER
 
SELECT A DAY
Number of Records: 241,738;   Date Range: 1/10/97 - 12/22/14
 
SHARE

PRINT THIS DATA

[ ← Previous Day ]
WEATHER ALMANAC - FEBRUARY 13, 2013
[ Next Day → ]
[ °C ]   °F
Weather ElementAverageHighLow
Temperature24.5 °F27 °F (3:00 pm)23 °F (12:20 am)
Dewpoint21.3 °F23 °F (11:00 am)19.4 °F (5:50 am)
Humidity86.1 %93 % (12:20 am)77 % (5:00 pm)
Barometer30.31 in30.43 in (7:00 pm)30.18 in (12:20 am)
Wind Speed3 mph6.9 mph (6:20 pm)
Weather ElementAverage
Visibility7.5 mi
Wind DirectionSSW (192.3 °)

Weather ElementTotal
Precipitation---
Heating Degree Days40 (Base 65)
Averaged from 67 records on February 13, 2013
WEATHER CONDITIONS BREAKOUT
WIND DIRECTION BREAKOUT
WEATHER BY HOUR - FEBRUARY 13, 2013
[ °C ]   °F
Local TimeTemperatureDewpointHumidityBarometerVisibilityWind DirectionWind SpeedGust SpeedPrecipitationEventsConditions
12:20 AM23.0 °F21.2 °F93 %30.18 in1.8 miNW (310°)4.6 mphSnowLight Snow
12:50 AM23.0 °F21.2 °F93 %30.18 in0.8 miNW (320°)4.6 mphSnowLight Snow
1:00 AM23.0 °F20.0 °F86 %30.22 in1.0 miNW (320°)4.5 mphSnowLight Snow
1:20 AM23.0 °F21.2 °F93 %30.18 in1.4 miWNW (300°)4.6 mphSnowLight Snow
1:50 AM23.0 °F21.2 °F93 %30.18 inNW (310°)5.8 mphSnowLight Snow
2:00 AM23.0 °F21.0 °F87 %30.23 in2.0 miWNW (300°)4.5 mphSnowLight Snow
2:20 AM23.0 °F21.2 °F93 %30.18 inWest (280°)3.5 mphSnowLight Snow
2:50 AM23.0 °F21.2 °F93 %30.18 in3.7 miNW (310°)3.5 mphSnowLight Snow
3:00 AM23.0 °F20.0 °F84 %30.23 in5.0 miWest (280°)2.2 mphSnowLight Snow
3:20 AM23.0 °F21.2 °F93 %30.18 in5.6 miWNW (290°)3.5 mphSnowLight Snow
3:50 AM23.0 °F21.2 °F93 %30.18 in3.7 miWest (260°)3.5 mphSnowLight Snow
4:20 AM23.0 °F21.2 °F93 %30.18 in5.6 miWest (280°)4.6 mphSnowLight Snow
4:50 AM23.0 °F21.2 °F93 %30.21 in5.6 miWNW (290°)5.8 mphSnowSnow Grains
5:00 AM23.0 °F20.0 °F84 %30.25 in4.0 miWest (270°)4.5 mphSnowSnow Grains
5:20 AM23.0 °F21.2 °F93 %30.21 in6.2 miWNW (290°)4.6 mphIce Crystals
5:50 AM23.0 °F19.4 °F86 %30.21 in6.2 miWest (260°)4.6 mphOvercast
6:00 AM23.0 °F20.0 °F84 %30.26 in18.0 miWest (260°)4.5 mphRainDrizzle
6:20 AM23.0 °F19.4 °F86 %30.21 in6.2 miWest (260°)4.6 mphOvercast
6:50 AM23.0 °F19.4 °F86 %30.24 in6.2 miWest (260°)3.5 mphOvercast
7:00 AM23.0 °F20.0 °F84 %30.28 in5.0 miWest (260°)4.5 mphSnowSnow Grains
7:20 AM23.0 °F19.4 °F86 %30.24 in3.7 miWNW (300°)3.5 mphSnowLight Snow
7:50 AM23.0 °F19.4 °F86 %30.24 in4.3 miWNW (300°)3.5 mphSnowSnow Grains
8:00 AM23.0 °F20.0 °F85 %30.30 in4.0 miNNW (340°)4.5 mphSnowSnow Grains
8:20 AM23.0 °F21.2 °F93 %30.27 in6.2 miWSW (250°)3.5 mphIce Crystals
8:50 AM23.0 °F21.2 °F93 %30.27 in6.2 miNW (310°)1.2 mphSnowSnow Grains
9:00 AM23.0 °F20.0 °F86 %30.32 in8.0 miNW (310°)2.2 mphSnowLight Snow Showers
9:20 AM23.0 °F21.2 °F93 %30.27 in5.0 miNW (310°)3.5 mphSnowLight Snow
9:50 AM24.8 °F21.2 °F86 %30.30 in6.2 miCalmOvercast
10:20 AM24.8 °F21.2 °F86 %30.30 inCalmSnowLight Snow
10:50 AM24.8 °F21.2 °F86 %30.30 inCalmSnowLight Snow
11:00 AM26.0 °F23.0 °F85 %30.36 in3.0 miCalmSnowLight Snow
11:20 AM24.8 °F21.2 °F86 %30.33 in3.7 miVariable1.2 mphSnowLight Snow
11:50 AM24.8 °F23.0 °F93 %30.33 in4.3 miSE (140°)1.2 mphSnowLight Snow
12:00 PM26.0 °F23.0 °F82 %30.38 in4.0 miCalmSnowLight Snow
12:20 PM26.6 °F21.2 °F80 %30.33 in5.0 miNorth (360°)1.2 mphSnowLight Snow
12:50 PM26.6 °F23.0 °F86 %30.33 in5.6 miNorth (360°)2.3 mphSnowLight Snow
1:00 PM26.0 °F22.0 °F80 %30.38 in8.0 miNNE (30°)2.2 mphSnowSnow
1:20 PM26.6 °F23.0 °F86 %30.33 in6.2 miESE (120°)2.3 mphOvercast
1:50 PM26.6 °F23.0 °F86 %30.33 in6.2 miVariable2.3 mphOvercast
2:00 PM26.0 °F23.0 °F83 %30.38 in9.0 miESE (120°)2.2 mphScattered Clouds
2:20 PM26.6 °F23.0 °F86 %30.33 in6.2 miESE (120°)1.2 mphOvercast
2:50 PM26.6 °F23.0 °F86 %30.36 in6.2 miSSE (150°)2.3 mphOvercast
3:00 PM27.0 °F23.0 °F80 %30.39 in7.0 miSE (140°)2.2 mphScattered Clouds
3:20 PM26.6 °F23.0 °F86 %30.36 in6.2 miSE (140°)1.2 mphOvercast
3:50 PM26.6 °F23.0 °F86 %30.36 in6.2 miSouth (170°)3.5 mphOvercast
4:20 PM26.6 °F21.2 °F80 %30.36 in6.2 miSE (140°)4.6 mphOvercast
4:50 PM26.6 °F21.2 °F80 %30.36 in6.2 miSSE (160°)4.6 mphOvercast
5:00 PM26.0 °F22.0 °F77 %30.41 in31.0 miSSE (150°)4.5 mphOvercast
5:20 PM26.6 °F21.2 °F80 %30.36 in6.2 miSE (140°)4.6 mphOvercast
5:50 PM24.8 °F21.2 °F86 %30.39 in6.2 miSE (130°)5.8 mphOvercast
6:00 PM25.0 °F21.0 °F78 %30.42 in31.0 miSE (130°)6.7 mphMostly Cloudy
6:20 PM24.8 °F21.2 °F86 %30.39 in6.2 miSE (130°)6.9 mphOvercast
6:50 PM24.8 °F23.0 °F93 %30.39 in6.2 miSSE (160°)4.6 mphOvercast
7:00 PM26.0 °F22.0 °F77 %30.43 in31.0 miSouth (170°)4.5 mphOvercast
7:20 PM26.6 °F21.2 °F80 %30.39 in6.2 miSouth (180°)3.5 mphOvercast
7:50 PM24.8 °F21.2 °F86 %30.39 in6.2 miSE (140°)3.5 mphOvercast
8:00 PM25.0 °F22.0 °F82 %30.43 in28.0 miSouth (170°)2.2 mphOvercast
8:20 PM24.8 °F21.2 °F86 %30.39 in6.2 miSouth (170°)2.3 mphOvercast
8:50 PM24.8 °F21.2 °F86 %30.39 in6.2 miSouth (180°)2.3 mphOvercast
9:00 PM25.0 °F21.0 °F78 %30.43 in22.0 miSSW (210°)2.2 mphPartly Cloudy
9:20 PM24.8 °F21.2 °F86 %30.39 in6.2 miVariable1.2 mphOvercast
9:50 PM24.8 °F21.2 °F86 %30.39 in6.2 miSE (140°)2.3 mphOvercast
10:20 PM24.8 °F21.2 °F86 %30.39 in6.2 miCalmOvercast
10:50 PM24.8 °F21.2 °F86 %30.39 in6.2 miCalmOvercast
11:00 PM25.0 °F21.0 °F80 %30.43 in15.0 miCalmOvercast
11:20 PM24.8 °F21.2 °F86 %30.39 in6.2 miSE (130°)1.2 mphOvercast
11:50 PM24.8 °F21.2 °F86 %30.39 in6.2 miCalmOvercast
Hourly data recorded from ESSD, located miles away from Sater, Sweden







STORIES FROM OUR PARTNERS